Location: Newark
(49.8348°N, 24.0280°E)
Time: 11:23:30
(UTC+00:00)

S-56A Canister/Altair - Pass Details

Date: 02 February 2020
Orbit: 633 x 2500 km, 38.9° (Epoch: 25 February)

Event Time Altitude Azimuth Distance (km) Brightness Sun altitude
Rises 18:24:21 0° 256° (WSW) 4,606 12.5 -29.9°
Reaches altitude 10° 18:28:13 10° 248° (WSW) 3,297 11.4 -30.5°
Enters shadow 18:34:29 31° 195° (SSW) 1,667 9.2 -31.5°
Maximum altitude 18:34:51 31° 189° (S) 1,638 - -31.6°
Drops below altitude 10° 18:39:42 10° 128° (SE) 2,375 - -32.3°
Sets 18:42:02 0° 117° (ESE) 3,155 - -32.7°
